Weather History for KBDE - March, 2013

Change the Weather History Date:

Monday, March 11, 2013

  Actual Average Record
Temperature  
Mean Temperature 6 °F -  
Max Temperature 21 °F 32 °F 61 °F (2012)
Min Temperature -7 °F 6 °F -28 °F (1956)
Degree Days  
Heating Degree Days 59    
Moisture  
Dew Point 3 °F    
Average Humidity 79    
Maximum Humidity 87    
Minimum Humidity 68    
Precipitation  
Precipitation 0.00 in - - ()
Sea Level Pressure  
Sea Level Pressure 29.95 in    
Wind  
Wind Speed 3 mph (NW)    
Max Wind Speed 10 mph    
Max Gust Speed -    
Visibility 10 miles    
Events      
Averages and records for this station are not official NWS values.
T = Trace of Precipitation, MM = Missing Value Source: NWS Daily Summary

Daily Weather History Graph

Daily Weather History Graph

Search for Another Location

Airport or City:

Trip Planner

Search our weather history database for the weather conditions in past years. The results will help you decide how hot, cold, wet, or windy it might be!

Date:

Astronomy

Mar. 11, 2013 Rise Set
Actual Time 7:39 AM CDT 7:18 PM CDT
Civil Twilight 7:08 AM CDT 7:49 PM CDT
Nautical Twilight 6:31 AM CDT 8:26 PM CDT
Astronomical Twilight 5:54 AM CDT 9:03 PM CDT
Moon 7:11 AM CDT (3/11) 7:36 PM CDT (3/11)
Length of Visible Light 12h 41m
Length of Day
11h 38m
Waning Crescent, 0% of the Moon is Illuminated
Mar 11
Waning Crescent
Mar 11
New
Mar 19
First Quarter
Mar 27
Full
Apr 2
Last Quarter

Hourly Weather History & Observations

Time (CDT) Temp. Windchill Dew Point Humidity Pressure Visibility Wind Dir Wind Speed Gust Speed Precip Events Conditions
12:53 AM 7.0 °F -3.3 °F 1.0 °F 77% 30.12 in 10.0 mi NW 5.8 mph - N/A   Clear
1:53 AM 1.9 °F - -2.9 °F 80% 30.10 in 10.0 mi Calm Calm - N/A   Clear
2:53 AM -0.9 °F -8.9 °F -4.0 °F 87% 30.09 in 10.0 mi NW 3.5 mph - N/A   Clear
3:53 AM -2.0 °F -10.1 °F -5.1 °F 87% 30.06 in 10.0 mi NW 3.5 mph - N/A   Clear
4:53 AM -0.4 °F -8.3 °F -4.0 °F 85% 29.97 in 10.0 mi NW 3.5 mph - N/A   Clear
5:53 AM -2.0 °F - -6.0 °F 83% 30.02 in 10.0 mi Calm Calm - N/A   Clear
6:53 AM -6.0 °F - -9.0 °F 87% 30.01 in 10.0 mi Calm Calm - N/A   Clear
7:53 AM -6.0 °F - -9.9 °F 83% 30.01 in 10.0 mi Calm Calm - N/A   Clear
8:04 AM -7.6 °F - -11.2 °F 84% 29.93 in 2.0 mi Calm Calm - N/A   Clear
8:12 AM -5.8 °F - -9.4 °F 84% 29.93 in 10.0 mi Calm Calm - N/A   Clear
8:53 AM -4.0 °F - -7.1 °F 87% 30.01 in 10.0 mi Calm Calm - N/A   Clear
9:09 AM -2.2 °F - -5.8 °F 85% 29.93 in 10.0 mi Calm Calm - N/A   Mostly Cloudy
9:53 AM 1.9 °F - -2.9 °F 80% 29.99 in 10.0 mi Calm Calm - N/A   Overcast
10:53 AM 10.9 °F - 6.1 °F 81% 29.97 in 7.0 mi Calm Calm - N/A   Overcast
11:49 AM 17.6 °F 12.3 °F 10.4 °F 73% 29.88 in 10.0 mi SW 3.5 mph - N/A   Mostly Cloudy
11:53 AM 17.1 °F - 10.9 °F 77% 29.95 in 10.0 mi Calm Calm - N/A   Mostly Cloudy
12:53 PM 19.0 °F 11.1 °F 12.0 °F 74% 29.94 in 10.0 mi NNW 5.8 mph - N/A   Overcast
1:53 PM 19.9 °F 14.9 °F 12.0 °F 71% 29.91 in 10.0 mi North 3.5 mph - N/A   Overcast
2:53 PM 19.9 °F 11.1 °F 10.9 °F 68% 29.88 in 10.0 mi NW 6.9 mph - N/A   Overcast
3:53 PM 19.9 °F 11.1 °F 12.0 °F 71% 29.87 in 10.0 mi NW 6.9 mph - N/A   Mostly Cloudy
4:53 PM 19.9 °F 8.6 °F 12.0 °F 71% 29.87 in 10.0 mi NW 10.4 mph - N/A   Overcast
5:53 PM 19.0 °F 10.0 °F 12.0 °F 74% 29.88 in 10.0 mi NW 6.9 mph - N/A   Overcast
6:53 PM 18.0 °F 9.8 °F 12.0 °F 78% 29.89 in 10.0 mi NW 5.8 mph - N/A   Overcast
7:53 PM 19.0 °F 12.3 °F 10.9 °F 71% 29.89 in 10.0 mi NW 4.6 mph - N/A   Overcast
8:53 PM 16.0 °F 8.8 °F 10.0 °F 77% 29.89 in 10.0 mi NW 4.6 mph - N/A   Overcast
9:53 PM 15.1 °F 7.7 °F 9.0 °F 77% 29.89 in 10.0 mi NW 4.6 mph - N/A   Partly Cloudy
10:53 PM 15.1 °F 5.2 °F 9.0 °F 77% 29.88 in 10.0 mi NW 6.9 mph - N/A   Overcast
11:53 PM 14.0 °F - 8.1 °F 77% 29.89 in 10.0 mi Calm Calm - N/A   Overcast